Overview Statistics Trail Chart Weather Telemetry Raw packets
 

This is the latest recevied weather packets stored in our database for station/object PY2XH-13. If no packets are shown the sender has not sent any weather packets the latest 10 day(s).

<< 10 11 12 13 14 >>
Time Temp. Humidity Pressure Rain* Wind** Luminosity Snow
1787899564 21.67° C 68% 1028 hPa - - - -
1787897764 21.67° C 68% 1028.2 hPa - - - -
1787895964 21.67° C 69% 1028.4 hPa - - - -
1787894164 21.67° C 68% 1028.5 hPa - - - -
1787892363 21.67° C 68% 1028.6 hPa - - - -
1787890564 21.67° C 69% 1028.9 hPa - - - -
1787888764 21.67° C 69% 1029 hPa - - - -
1787886964 21.67° C 69% 1029.3 hPa - - - -
1787885164 21.67° C 68% 1029.2 hPa - - - -
1787883364 21.67° C 68% 1029.2 hPa - - - -
1787881564 22.22° C 64% 1029.1 hPa - - - -
1787879764 21.67° C 63% 1029 hPa - - - -
1787877964 22.22° C 62% 1029 hPa - - - -
1787876165 21.67° C 62% 1028.9 hPa - - - -
1787874365 21.67° C 62% 1028.6 hPa - - - -
1787872564 21.67° C 60% 1028.4 hPa - - - -
1787870764 21.67° C 59% 1027.9 hPa - - - -
1787868964 21.67° C 58% 1027.5 hPa - - - -
1787867164 22.22° C 57% 1027.6 hPa - - - -
1787865365 22.22° C 55% 1027.3 hPa - - - -
1787863565 22.22° C 54% 1027.1 hPa - - - -
1787861764 22.22° C 57% 1027 hPa - - - -
1787859964 22.78° C 53% 1027.1 hPa - - - -
1787858165 23.33° C 51% 1026.9 hPa - - - -
1787856364 23.33° C 51% 1026.8 hPa - - - -

* Rain since midnight (hover to see other rain measurements)
** Current wind speed in m/s (hover to see current wind gust speed)